Flag for Australia Weather past 2 weeks in Lord Howe Island, Lord Howe Island, Australia

Now
69 °F

Overcast.


Feels Like: 69 °F
Forecast: 72 / 75 °F
Wind: 3 mph from South

Location: Lord Howe Island

Current Time: Dec 28, 2014 at 1:32:45 AM

Latest Report: Dec 28, 2014 at 12:00 AM


Visibility: N/A

Pressure: 30.06 "Hg

Humidity: 90%

Dew point: 66 °F

Location of Lord Howe IslandLocation

Historic Weather in Lord Howe Island — Graph

°F

Lord Howe Island temperature yesterday

Maximum temperature yesterday: 75 °F (at 9:00 AM)
Minimum temperature yesterday: 69 °F (at 8:00 PM)
Average temperature yesterday: 72 °F

Past Weeks' High & Low Weather Summary

 TemperatureHumidityPressure
High80 °F (Dec 18, 9:00 AM)96% (Dec 18, 2:00 AM)30.12 "Hg (Dec 18, 2:00 AM)
Low63 °F (Dec 17, 12:00 AM)50% (Dec 20, 5:00 PM)29.68 "Hg (Dec 17, 5:00 AM)
Average71 °F75%29.92 "Hg
* Reported Midnight between Dec 12 and Dec 13 — Midnight between Dec 27 and Dec 28, Lord Howe Island, Weather by CustomWeather, © 2014

Note: Actual official high and low records may vary slightly from our data, if they occured in-between our weather recording intervals... More about our weather records

Advertising

Lord Howe Island weather history for previous 24 hours

 ConditionsComfort  
Time TempWeatherWind HumidityBarometerVisibility
12:00 AM
Dec 28
69 °FOvercast.3 mph90%30.06 "HgN/A
11:00 PM
Dec 27
69 °FMild.2 mph88%30.08 "HgN/A
9:00 PM69 °FOvercast.9 mph91%30.08 "HgN/A
8:00 PM69 °FMild.13 mph95%30.07 "HgN/A
6:00 PM69 °FOvercast.8 mph89%30.05 "HgN/A
5:00 PM70 °FMild.12 mph94%30.02 "HgN/A
3:00 PM72 °FLight rain. Overcast.No wind93%30.01 "Hg5 mi
2:00 PM72 °FMild.3 mph93%30.02 "HgN/A
12:00 PM72 °FOvercast.6 mph95%30.03 "Hg3 mi
11:00 AM71 °FMild.9 mph95%30.02 "HgN/A
9:00 AM75 °FOvercast.2 mph85%30.01 "Hg12 mi
8:00 AM74 °FMild.2 mph90%30.01 "HgN/A
6:00 AM75 °FOvercast.8 mph84%29.98 "Hg11 mi
5:00 AM74 °FMild.8 mph87%29.98 "HgN/A
3:00 AM75 °FOvercast.7 mph85%29.96 "HgN/A
2:00 AM75 °FMild.7 mph84%29.97 "HgN/A
Weather by CustomWeather, © 2014

See weather overviewHow to use our weather pages